Location: Hamayl? Da??
(36.7028°N, 30.1716°E)
Time: 05:42:19
(UTC+00:00)

COSMOS 2428 - Pass Details

Date: 04 August 2024
Orbit: 842 x 857 km, 70.9° (Epoch: 10 September)

Event Time Altitude Azimuth Distance (km) Brightness Sun altitude
Exits shadow 23:47:44 21° 109° (ESE) 1,832 4.5 -31.2°
Maximum altitude 23:48:18 21° 100° (E) 1,819 4.6 -31.2°
Drops below altitude 10° 23:52:24 10° 54° (NE) 2,473 5.9 -30.8°
Sets 23:55:25 0° 39° (NE) 3,415 7.0 -30.4°
